Regional Weather Roundup
Issued by NWS

Home | Current Version | Previous Version | Graphics & Text | Print | Product List | Glossary On
Versions: 1 2 3 4 5 6 7 8 9 10 11 12 13 14 15 16 17 18 19 20 21 22 23 24 25 26 27 28 29 30 31 32 33 34 35 36 37 38 39 40 41 42 43 44 45 46 47 48 49 50
219
ASUS43 KDMX 220006
RWRIA

WEATHER ROUNDUP FOR IOWA
NATIONAL WEATHER SERVICE DES MOINES IA
700 PM CDT MON MAY 21 2018

NOTE: "FAIR" INDICATES FEW OR NO CLOUDS BELOW 12,000 FEET WITH NO
SIGNIFICANT WEATHER AND/OR OBSTRUCTIONS TO VISIBILITY.

* - THESE STATIONS ARE NOT NWS STATIONS...THUS NOT UNDER NWS
QUALITY CONTROL.  THEY ALSO DO NOT REPORT WEATHER SUCH
AS PRECIPITATION OR FOG.

IAZ001>003-012>014-020>022-031>034-043>046-220100-
   NORTHWEST IOWA

CITY           SKY/WX    TMP DP  RH WIND       PRES   REMARKS
CARROLL *      SUNNY    N/A N/A N/A W10       29.98S
CHEROKEE *     MOSUNNY   67  60  78 W5        29.98S
DENISON *      SUNNY     68  57  68 CALM      29.99F
LE MARS *      MOSUNNY   68  57  68 CALM      29.96F
ORANGE CITY *  PTSUNNY   66  57  72 CALM      29.98S
SHELDON *      CLOUDY    64  63  94 CALM      29.97S
SIOUX CITY     SUNNY     70  58  65 E5        29.95F
6HR MIN TEMP:  63; 6HR MAX TEMP:  71;

SPENCER        CLOUDY    66  58  75 CALM      29.98F
6HR MIN TEMP:  60; 6HR MAX TEMP:  68; 6HR PCP:  0.02;

STORM LAKE *   PTSUNNY   66  59  77 SW7       29.98S
$$

IAZ055>058-069>071-079>083-090>094-220100-
   SOUTHWEST IOWA

CITY           SKY/WX    TMP DP  RH WIND       PRES   REMARKS
ATLANTIC *     SUNNY     70  57  64 NW8       29.98S
AUDUBON *      MOSUNNY   70  57  64 W5        30.00S
CLARINDA *     SUNNY     75  54  46 NW5       29.99S
COUNCIL BLFS * SUNNY     72  63  73 CALM      29.96F
CRESTON *      MOSUNNY   73  57  56 SW9       29.98F
HARLAN  *      SUNNY     68  57  68 VRB5      30.01F
LAMONI         SUNNY     70  60  70 S7        29.98F
6HR MIN TEMP:  67; 6HR MAX TEMP:  72;

RED OAK *      SUNNY     75  54  46 CALM      29.97F
SHENANDOAH *   SUNNY     77  55  47 CALM      29.97S
$$

IAZ047>049-059>061-072>074-084-220100-
   CENTRAL IOWA

CITY           SKY/WX    TMP DP  RH WIND       PRES   REMARKS
AMES           SUNNY     69  60  73 N5        29.97F
6HR MIN TEMP:  62; 6HR MAX TEMP:  70;

ANKENY *       SUNNY     70  61  73 NE5       29.97F
BOONE *        MOSUNNY   68  61  77 N3        29.97F
CHARITON *     CLOUDY    72  63  73 CALM      29.97F
DES MOINES     MOSUNNY   72  62  71 NE5       29.96F
6HR MIN TEMP:  65; 6HR MAX TEMP:  74;

GRINNELL*      PTSUNNY   65  60  83 N6        29.99F
KNOXVILLE *    SUNNY     70  61  73 NE5       29.96F
MARSHALLTOWN   CLOUDY    65  61  87 NE3       29.98S
6HR MIN TEMP:  60; 6HR MAX TEMP:  65;

NEWTON *       MOSUNNY   68  63  83 N7        29.98F
PELLA *        SUNNY     71  62  71 CALM      29.98F
PERRY *        PTSUNNY   71  60  68 SW3       29.97S
$$

IAZ004>006-015-016-023>025-035-036-220100-
   NORTH CENTRAL IOWA

CITY           SKY/WX    TMP DP  RH WIND       PRES   REMARKS
ALGONA *       CLOUDY    63  59  88 CALM      30.00S
CLARION *      CLOUDY    64  59  82 NW3       29.99S
ESTHERVILLE    CLOUDY    61  58  90 SW5       29.99S
6HR MIN TEMP:  59; 6HR MAX TEMP:  61; 6HR PCP:  0.05;

FORT DODGE *   PTSUNNY   65  61  87 NE5       29.98F
MASON CITY     CLOUDY    61  57  87 N3        30.00F
6HR MIN TEMP:  57; 6HR MAX TEMP:  61;

FOREST CITY *  CLOUDY    61  59  94 CALM      30.00S
WEBSTER CITY * CLOUDY    66  59  77 NW5       29.96F
IOWA FALLS *   CLOUDY    65  60  85 NE5       30.00F
$$

IAZ007>011-017>019-026>030-037>042-050>054-066-220100-
   NORTHEAST IOWA

CITY           SKY/WX    TMP DP  RH WIND       PRES   REMARKS
CEDAR RAPIDS   CLOUDY    63  60  90 NW6       29.97F
6HR MIN TEMP:  60; 6HR MAX TEMP:  64; 6HR PCP:  0.01;

CHARLES CITY * CLOUDY    59  55  88 CALM      30.00S
CLINTON *        N/A    N/A N/A N/A N7        29.97S
DECORAH *      CLOUDY    57  57 100 CALM      29.99S
DUBUQUE        CLOUDY    61  59  93 NE6       29.98F FOG
6HR MIN TEMP:  57; 6HR MAX TEMP:  62; 6HR PCP:  0.03;

MONTICELLO *   CLOUDY    63  63 100 NW5       29.97F
OELWEIN *      CLOUDY    61  59  94 CALM      30.00S
WATERLOO       CLOUDY    61  58  90 N3        29.98F
6HR MIN TEMP:  57; 6HR MAX TEMP:  62;

$$

IAZ064-065-067-068-078-220100-
   EAST CENTRAL IOWA

CITY           SKY/WX    TMP DP  RH WIND       PRES   REMARKS
DAVENPORT      FAIR      70  65  84 N8        29.97F
6HR MIN TEMP:  62; 6HR MAX TEMP:  74;

IOWA CITY      CLOUDY    65  61  87 W8        29.99S
6HR MIN TEMP:  63; 6HR MAX TEMP:  70;

MT. PLEASANT * SUNNY     70  61  73 NW6       29.96S
MUSCATINE *    FAIR      72  63  73 NW10      29.96S
QUAD CITIES    FAIR      74  63  68 W12       29.94S
6HR MIN TEMP:  64; 6HR MAX TEMP:  78;

$$

IAZ062-063-075>077-085>089-095>099-220100-
   SOUTHEAST IOWA

CITY           SKY/WX    TMP DP  RH WIND       PRES   REMARKS
BURLINGTON     MOSUNNY   75  60  59 W7        29.95S
6HR MIN TEMP:  69; 6HR MAX TEMP:  78;

FAIRFIELD *    PTSUNNY   70  63  78 NW10      29.96F
FORT MADISON * MOSUNNY   75  61  60 NW7       29.96F
KEOKUK *       MOSUNNY   75  63  64 W5        29.95S
OSKALOOSA *    FAIR      69  61  76 N5        29.98F
CENTERVILLE *    N/A     72  66  83 CALM      29.98F
OTTUMWA        SUNNY     70  62  76 N9        29.97F
6HR MIN TEMP:  67; 6HR MAX TEMP:  73;

WASHINGTON *   MOSUNNY   70  64  83 NW12      29.98S
$$

ABBREVIATIONS USED IN REMARKS
   TC - TEMPERATURES IN CELSIUS
  WCI - WIND CHILL INDEX
   HX - HEAT INDEX
  VSB - VISIBILITY
$$





USA.gov is the U.S. government's official web portal to all federal, state and local government web resources and services.